TimeSAST,TemperatureF,Dew PointF,Humidity,Sea Level PressureIn,VisibilityMPH,Wind Direction,Wind SpeedMPH,Gust SpeedMPH,PrecipitationIn,Events,Conditions,WindDirDegrees,DateUTC
12:00 AM,59.0,57.2,94,30.12,-9999.0,East,20.7,35.7,N/A,,Heavy Drizzle,100,2012-10-15 22:00:00
1:00 AM,59.0,55.4,88,30.12,6.2,East,12.7,-,N/A,,Mostly Cloudy,90,2012-10-15 23:00:00
2:00 AM,58,54,83,30.14,6,East,13.8,,,,,100,2012-10-16 00:00:00
2:00 AM,59.0,55.4,88,30.12,6.2,East,13.8,-,N/A,,Overcast,90,2012-10-16 00:00:00
3:00 AM,59.0,55.4,88,30.12,6.2,East,10.4,-,N/A,,Mostly Cloudy,90,2012-10-16 01:00:00
4:00 AM,59.0,55.4,88,30.12,6.2,East,10.4,-,N/A,,Mostly Cloudy,100,2012-10-16 02:00:00
5:00 AM,59.0,55.4,88,30.12,6.2,East,10.4,-,N/A,,Mostly Cloudy,90,2012-10-16 03:00:00
6:00 AM,59.0,55.4,88,30.15,6.2,East,9.2,-,N/A,,Mostly Cloudy,90,2012-10-16 04:00:00
7:00 AM,59.0,55.4,88,30.15,6.2,East,16.1,-,N/A,,Mostly Cloudy,100,2012-10-16 05:00:00
8:00 AM,60,56,84,30.19,6,East,13.8,,,,Mist,100,2012-10-16 06:00:00
8:00 AM,60.8,57.2,88,30.18,5.6,East,13.8,-,N/A,,Overcast,100,2012-10-16 06:00:00
9:00 AM,60.8,55.4,82,30.18,5.6,ESE,17.3,-,N/A,,Overcast,110,2012-10-16 07:00:00
10:00 AM,60.8,55.4,82,30.18,6.2,East,17.3,-,N/A,,Overcast,100,2012-10-16 08:00:00
11:00 AM,60.8,55.4,82,30.18,6.2,East,17.3,-,N/A,,Overcast,100,2012-10-16 09:00:00
12:00 PM,62.6,55.4,77,30.15,6.2,East,21.9,-,N/A,,Mostly Cloudy,100,2012-10-16 10:00:00
1:00 PM,62.6,55.4,77,30.15,6.2,East,19.6,-,N/A,,Mostly Cloudy,100,2012-10-16 11:00:00
2:00 PM,64.4,57.2,77,30.12,6.2,East,20.7,-,N/A,,Mostly Cloudy,100,2012-10-16 12:00:00
3:00 PM,62.6,55.4,77,30.09,6.2,ESE,25.3,-,N/A,,Mostly Cloudy,110,2012-10-16 13:00:00
4:00 PM,62.6,55.4,77,30.06,6.2,ESE,21.9,-,N/A,,Mostly Cloudy,110,2012-10-16 14:00:00
5:00 PM,62,56,75,30.09,12,ESE,23.0,,,,Overcast,110,2012-10-16 15:00:00
5:00 PM,60.8,57.2,88,30.06,6.2,ESE,23.0,-,N/A,,Mostly Cloudy,110,2012-10-16 15:00:00
6:00 PM,60.8,57.2,88,30.06,6.2,ESE,19.6,-,N/A,,Mostly Cloudy,110,2012-10-16 16:00:00
7:00 PM,60.8,57.2,88,30.06,6.2,East,16.1,-,N/A,,Overcast,100,2012-10-16 17:00:00
8:00 PM,60,57,86,30.10,4,East,15.0,,,,Mist,100,2012-10-16 18:00:00
8:00 PM,60.8,57.2,88,30.09,3.7,East,16.1,-,N/A,,Overcast,100,2012-10-16 18:00:00
9:00 PM,60.8,57.2,88,30.09,5.0,East,16.1,-,N/A,,Overcast,100,2012-10-16 19:00:00
10:00 PM,60.8,57.2,88,30.09,5.0,ESE,15.0,-,N/A,,Overcast,110,2012-10-16 20:00:00
11:00 PM,60.8,57.2,88,30.06,5.6,East,11.5,-,N/A,,Overcast,100,2012-10-16 21:00:00